Location: Comstock Ranch
(38.0499°N, 120.2627°W)
Time: 21:19:29
(UTC+00:00)

CZ-3 R/B - Pass Details

Date: 08 September 2024
Orbit: 506 x 10057 km, 28.3° (Epoch: 12 October)

Event Time Altitude Azimuth Distance (km) Brightness Sun altitude
Exits shadow 13:04:49 - 248° (WSW) 8,227 5.6 -7.1°
Reaches altitude 10° 13:08:02 10° 246° (WSW) 7,261 5.3 -6.5°
Maximum altitude 13:24:34 43° 183° (S) 2,097 3.2 -3.3°
Drops below altitude 10° 13:30:17 10° 112° (ESE) 2,603 4.9 -2.2°
Sets 13:32:05 0° 103° (ESE) 3,218 5.8 -1.9°
